Voltar ao catálogo

STARLINK-36755

AtivoComunicaçõesSSO
NORAD 67726·PAYLOAD·🇺🇸 United States

Lançado Feb 11, 2026 de Vandenberg Space Force Base

Loading…

Próximas Passagens (próximas 24 horas)

TLE

AtualizadoSource: CelesTrak SupGP

Época: Sep 14, 2026, 21:26 UTC

1 67726C 26026F   26257.89354167 -.00002660  00000+0 -82581-4 0  2579
2 67726  97.2847 309.7626 0001331  87.9896  93.3064 15.33433452    14

Acompanhe STARLINK-36755 em tempo real com AllMySat

Download on the App Store